Wind_Speed
23 24 25 25 26 27 27 27 28 28 29 29 30 31 32 32 32 30 29 28 27 27 27 27 29 32 34 36 39 40 41 41 41 40 41 43 46 46 46 45 44 43 43 42 40 39 37 37 37 37 36 35 33 32 30 28 26 25 22 18 17 16 19 17 10 8 9 10 8 9 10 14 18 17 20 21 22 21 19 17 15 14 16 18 19 22 25 27
24 25 26 28 29 30 31 32 32 32 32 32 32 32 33 34 35 35 33 32 31 30 29 29 30 32 34 36 38 41 42 42 42 41 43 45 46 45 46 46 45 45 44 43 42 41 40 39 39 39 38 36 35 33 32 30 27 27 24 20 17 16 18 17 11 10 10 9 7 8 8 13 16 15 18 20 20 21 20 18 16 15 16 17 19 20 23 26
26 27 28 30 31 33 34 35 36 36 36 36 36 35 35 35 36 37 37 36 34 33 32 31 31 32 34 37 38 40 42 44 43 43 45 45 45 46 47 48 47 46 45 45 45 44 43 41 40 39 39 37 36 35 33 31 28 28 25 21 18 17 18 16 13 12 11 9 5 7 8 13 14 13 16 18 18 19 21 19 17 16 16 17 18 19 22 25
28 29 31 32 34 35 36 37 38 38 39 39 39 39 38 38 38 38 39 39 38 37 36 34 34 34 35 37 39 41 42 44 44 45 47 46 45 47 48 49 48 48 47 46 46 46 44 41 40 40 40 39 37 36 35 32 30 29 26 22 20 19 18 17 16 15 13 11 7 7 10 13 12 11 14 15 15 16 19 20 18 18 18 18 18 19 21 24
29 31 32 34 36 38 38 39 39 39 40 40 41 41 41 40 40 40 40 41 42 41 39 38 37 36 36 38 39 41 43 43 44 47 48 47 47 48 49 49 49 49 48 48 48 47 45 42 40 40 41 40 39 38 37 34 32 30 28 25 22 20 18 17 19 17 15 12 9 9 11 13 10 9 12 12 12 14 17 19 19 19 19 19 19 19 20 23
30 32 34 36 37 38 39 40 41 41 42 42 43 43 43 42 42 43 43 43 43 44 43 41 40 40 39 39 40 42 43 44 45 49 49 48 49 49 50 49 50 50 50 49 49 48 46 44 41 41 42 42 40 39 38 36 34 30 29 26 22 21 20 18 22 21 15 13 10 9 9 10 7 6 8 9 9 11 14 17 18 19 20 20 19 19 20 22
31 33 35 37 38 39 39 41 43 44 45 46 46 46 45 45 44 44 45 45 45 45 46 45 43 43 42 41 41 42 44 45 47 49 50 50 51 50 50 50 51 52 51 50 50 48 47 45 43 43 43 43 42 41 40 38 35 33 30 27 24 24 22 19 24 24 18 14 12 10 7 4 3 4 5 7 7 9 12 14 16 18 20 20 20 19 19 21
33 35 37 38 39 40 41 43 45 47 48 48 48 48 48 47 47 47 47 47 47 47 47 48 47 46 45 44 43 43 44 46 48 50 51 52 53 52 52 52 52 52 52 51 50 50 49 47 45 45 45 45 44 43 42 39 36 35 32 30 27 25 22 21 24 25 21 17 14 11 8 6 4 4 3 6 7 8 10 12 14 17 19 20 20 19 19 21
35 37 38 40 40 41 43 45 47 49 51 51 51 51 51 50 50 49 49 49 49 49 49 50 50 49 48 46 46 44 44 47 50 51 52 53 54 54 54 54 53 53 53 52 51 51 50 49 47 46 46 46 45 44 44 41 37 37 35 31 30 25 20 20 24 25 22 20 16 13 11 9 9 8 6 6 6 6 8 10 12 15 18 20 20 20 19 20
36 38 40 41 42 43 45 47 50 52 54 54 54 53 53 53 52 52 52 51 51 51 51 51 52 52 51 49 48 46 45 47 50 52 53 54 55 56 56 55 54 54 54 53 52 52 51 50 49 48 47 47 47 46 46 44 40 40 38 33 32 29 20 18 24 24 23 22 18 16 12 11 13 11 8 4 4 4 5 8 11 13 16 18 20 20 19 20
39 41 42 43 44 46 48 50 53 55 57 58 57 56 55 54 54 54 54 54 54 53 53 53 53 54 54 53 50 48 48 48 50 53 55 56 57 58 57 57 56 55 55 55 54 53 51 51 51 50 48 48 49 48 48 48 44 42 39 34 33 31 24 21 24 24 23 23 21 17 14 12 13 11 7 4 3 4 4 7 9 11 14 16 18 19 19 20
41 43 45 46 47 49 52 54 56 59 61 61 59 58 57 56 56 55 55 55 56 56 55 55 55 56 56 55 53 51 51 51 51 53 56 57 58 59 59 58 58 56 56 55 54 54 52 52 53 51 50 50 51 50 50 50 47 45 40 34 33 32 27 26 26 25 25 24 22 19 15 11 12 13 9 6 5 5 4 5 7 9 12 15 17 18 19 20
43 46 48 49 51 53 55 57 60 63 64 64 62 60 59 58 57 57 57 57 57 58 58 57 57 57 58 57 56 54 54 54 52 53 56 58 59 60 60 60 59 58 58 57 56 54 53 54 54 53 52 51 52 52 51 51 49 47 42 36 34 33 29 26 26 26 26 25 23 20 17 13 16 17 12 8 7 7 5 4 5 7 10 13 15 17 17 19
45 48 50 53 54 55 58 61 63 66 66 66 65 63 61 59 58 57 57 57 58 59 59 59 59 59 59 59 59 57 57 56 54 54 56 59 60 61 61 61 61 60 59 58 57 55 54 55 55 55 54 53 53 53 53 53 51 48 44 37 35 35 30 26 26 27 28 27 25 22 17 14 18 17 11 8 9 9 6 4 4 5 7 10 13 15 16 17
47 50 53 55 57 58 61 64 67 68 68 68 67 65 63 61 59 57 57 57 58 59 60 61 61 61 61 61 61 60 59 58 57 55 56 59 60 61 62 62 62 62 60 59 58 57 57 57 57 57 57 55 55 55 54 54 53 50 45 39 36 35 30 27 28 29 30 28 27 24 18 17 18 15 11 10 11 10 8 4 3 4 5 7 11 14 14 15
50 53 55 57 59 61 64 67 69 70 70 70 69 67 65 62 59 56 55 55 56 58 60 61 62 62 63 63 63 62 61 60 59 57 56 58 60 62 62 62 63 63 62 60 58 58 58 58 58 60 59 57 56 57 57 55 54 52 47 42 39 37 32 30 29 29 30 29 28 26 21 22 21 17 15 14 13 12 10 7 3 2 3 5 9 11 13 13
52 55 57 59 62 65 67 70 72 72 72 72 70 69 66 62 58 54 52 52 53 55 58 60 62 63 64 64 64 64 63 62 61 59 58 58 61 63 63 64 64 65 63 61 59 59 59 59 59 61 60 59 59 59 59 57 56 54 51 46 43 40 34 30 29 27 29 29 29 27 22 23 24 20 18 16 16 15 12 9 6 3 2 3 6 9 10 11
54 57 59 61 64 67 70 72 74 75 75 74 72 70 67 62 56 51 49 48 49 52 56 59 61 63 64 65 65 66 66 64 63 62 60 60 61 63 64 65 66 66 65 63 61 60 61 60 60 61 61 61 60 60 60 58 56 56 54 47 44 43 36 31 29 27 28 30 31 28 23 25 26 23 21 18 18 18 15 12 9 5 2 2 5 7 8 9
57 59 61 64 67 70 73 75 76 77 77 76 74 71 66 60 52 47 44 43 45 49 53 57 61 63 65 66 68 69 68 67 65 64 63 62 63 64 65 66 66 67 66 64 63 62 62 62 61 62 64 64 62 61 61 59 57 59 57 48 43 44 41 33 31 29 29 30 32 31 26 27 29 25 23 20 18 18 17 14 10 6 3 2 4 6 6 7
59 61 63 66 69 72 75 77 78 79 79 77 74 70 63 54 46 41 39 38 40 45 50 55 60 63 66 68 70 71 70 69 67 66 66 65 65 65 66 66 67 67 67 66 65 65 65 64 64 65 66 65 63 62 62 61 61 61 60 53 45 45 43 37 33 32 31 30 32 33 31 30 31 27 23 21 19 19 18 16 12 8 5 4 4 5 4 5
61 63 65 68 71 74 76 79 80 80 79 77 72 65 56 47 40 36 34 34 36 40 46 53 59 63 67 69 71 72 72 71 69 68 68 68 67 66 67 67 67 68 68 68 67 67 66 66 67 68 67 66 64 63 64 63 62 62 61 56 49 47 45 40 37 34 31 30 31 35 35 34 32 29 24 21 20 21 19 17 14 11 7 5 4 4 3 4
63 65 67 70 72 75 78 81 81 81 79 75 67 57 48 40 35 31 30 30 31 35 42 49 56 63 67 70 72 74 74 73 71 70 71 71 69 68 67 67 68 68 69 69 69 69 67 68 69 68 67 67 66 65 66 65 64 64 63 59 54 50 46 41 40 38 34 33 33 34 35 33 33 32 27 23 22 24 22 19 15 12 10 7 6 4 3 3
65 66 69 72 74 77 80 82 82 80 77 69 58 48 41 35 31 28 27 27 28 31 37 45 53 61 67 71 73 75 75 75 74 73 73 72 71 69 69 69 69 68 69 70 71 71 71 71 70 68 68 68 68 67 67 67 66 65 65 61 57 53 48 42 41 41 38 37 35 33 32 30 30 32 30 28 27 26 24 20 16 14 13 10 8 7 4 3
66 68 71 73 76 79 81 82 81 78 72 61 50 43 37 32 28 25 24 24 25 28 33 40 48 57 66 71 74 76 77 77 76 74 74 73 72 72 70 70 69 69 70 71 73 74 74 73 71 70 70 70 70 69 69 69 68 68 67 65 59 54 50 46 42 40 39 38 37 35 34 33 31 32 33 33 31 28 26 21 18 17 15 13 9 7 5 3
67 69 72 75 78 80 82 82 80 74 64 54 45 38 33 29 25 22 21 21 22 24 29 36 44 54 63 70 74 77 78 78 77 76 74 74 74 73 71 70 71 71 71 73 75 76 75 74 73 73 72 71 71 71 71 71 70 70 69 68 62 56 55 51 43 40 39 38 36 36 39 39 37 37 36 35 34 31 28 23 20 18 16 14 11 8 6 4
68 71 73 76 79 81 82 81 77 69 58 49 41 35 30 26 23 19 18 19 19 21 26 32 40 50 60 69 74 78 79 79 78 77 75 75 74 74 73 72 72 71 72 74 76 76 75 74 74 74 74 73 73 73 73 73 73 72 72 71 65 59 58 55 46 41 41 41 38 38 40 41 40 40 38 36 34 32 29 25 22 21 18 16 14 11 9 7
69 71 74 77 80 82 81 79 73 63 53 46 38 31 26 23 20 17 16 16 17 19 23 29 37 47 57 66 74 78 81 81 80 79 77 76 76 75 75 73 72 73 73 74 74 75 76 77 75 75 75 75 75 74 75 75 74 74 74 73 67 61 60 59 49 41 42 43 40 38 39 41 42 41 39 37 34 33 32 28 24 23 21 19 17 15 13 11
70 72 75 78 81 82 81 77 68 58 51 44 35 28 23 20 18 16 15 14 15 17 21 26 33 43 53 63 72 78 81 82 82 82 80 79 77 76 75 74 74 74 74 75 75 76 79 79 78 78 77 77 76 76 76 76 76 75 75 73 69 63 61 62 54 43 43 44 41 38 39 40 40 40 39 37 35 34 34 31 27 25 24 22 20 18 16 14
70 72 76 79 82 82 80 74 63 54 49 42 32 25 20 16 16 16 14 13 13 16 20 25 31 39 49 60 70 77 81 82 82 82 81 80 79 77 76 76 75 74 75 76 76 77 79 79 79 79 79 78 78 77 77 77 76 76 76 73 70 66 63 65 59 48 46 48 45 43 42 41 38 38 40 39 36 36 35 33 29 28 26 24 22 20 18 17
70 73 76 80 82 82 79 70 59 52 48 40 30 23 18 14 13 14 14 11 11 15 19 23 29 36 46 56 67 75 80 82 83 83 83 82 80 78 77 76 76 75 76 75 74 76 78 79 79 80 79 78 77 77 77 77 77 77 77 73 71 69 66 67 64 53 49 50 48 45 44 43 40 38 41 41 39 37 35 34 32 31 29 27 24 22 20 19
71 74 77 80 82 81 77 67 56 51 46 37 28 21 17 13 11 12 13 11 10 14 18 22 27 34 43 53 63 73 79 83 84 85 85 84 81 79 78 78 78 77 75 74 74 75 77 78 79 80 80 79 78 77 77 77 78 78 79 76 72 71 69 70 67 57 52 53 51 47 46 47 44 40 41 41 40 38 36 35 35 34 31 29 26 24 22 22
71 74 78 81 82 80 74 63 54 50 44 35 26 20 17 13 10 9 11 11 10 13 17 21 26 31 40 50 60 69 78 82 85 86 86 86 83 81 80 79 79 78 75 75 74 75 76 77 79 80 81 80 79 78 77 78 80 80 81 79 75 74 72 72 70 61 55 56 54 50 49 50 48 43 40 39 39 39 36 34 36 35 32 30 27 25 24 24
72 75 78 81 82 80 72 60 52 49 42 32 25 19 16 12 9 8 9 10 10 12 15 19 24 29 37 46 57 67 75 81 85 86 87 87 85 83 80 79 80 79 77 75 75 75 75 76 78 80 81 81 79 79 78 79 80 81 82 82 78 75 75 74 72 66 59 57 56 53 50 51 51 47 44 43 43 43 41 39 39 37 34 32 28 24 24 25
72 75 78 81 81 79 70 58 51 48 40 31 23 18 15 12 9 7 7 9 10 11 14 18 22 28 34 42 52 64 73 80 84 86 87 88 87 85 82 81 82 81 78 75 75 76 76 76 78 80 81 81 80 80 79 79 81 82 84 85 81 78 77 77 76 71 63 58 58 55 52 53 53 49 47 47 47 47 46 44 42 39 37 36 33 29 28 28
72 75 78 81 81 78 68 57 51 47 39 29 22 17 15 11 9 7 6 8 9 9 12 16 20 26 31 38 47 58 69 78 83 85 87 88 88 87 84 83 82 81 79 78 78 77 76 76 77 79 81 82 81 81 80 80 82 84 86 87 85 81 81 81 80 77 68 61 60 59 56 55 54 49 48 48 48 46 45 45 43 40 39 38 37 35 33 32
73 75 78 80 80 76 67 56 50 47 38 29 21 16 14 12 9 6 6 7 7 8 10 14 18 23 29 35 43 52 64 74 81 85 87 88 88 87 85 83 82 81 81 80 78 77 77 77 77 79 81 83 83 82 82 83 84 85 86 87 86 84 83 83 82 80 73 66 64 63 59 57 55 52 51 50 50 48 46 45 44 43 40 37 39 40 37 36
73 76 78 80 80 75 66 55 50 46 38 29 20 15 13 11 9 7 7 8 7 7 8 11 15 20 26 32 39 47 58 69 78 84 87 88 89 88 86 85 83 83 83 81 79 79 78 78 78 80 82 84 85 84 84 85 84 84 85 86 87 86 86 85 83 82 77 70 67 66 62 59 58 56 55 54 53 53 50 47 46 45 41 36 40 42 39 38
73 76 78 80 80 75 65 55 50 46 39 29 20 15 12 11 10 8 8 8 8 8 7 9 13 17 23 29 36 44 53 64 75 82 86 88 89 89 88 86 85 84 84 82 81 79 78 78 79 81 83 84 86 85 85 84 83 83 85 86 87 88 87 86 84 84 81 74 71 69 65 63 62 60 58 56 56 55 53 49 48 48 46 42 43 43 41 39
73 76 78 80 79 74 65 55 49 46 39 29 21 15 11 10 10 10 9 9 10 10 9 8 10 14 20 26 33 40 48 59 70 80 85 88 89 89 89 88 86 85 86 85 82 80 79 80 81 82 83 85 86 85 84 83 83 84 84 85 87 88 88 87 86 85 84 79 76 74 70 67 65 65 60 56 58 58 53 50 50 50 51 49 45 41 41 42
74 76 78 80 79 74 65 54 49 47 40 30 21 15 11 10 11 11 11 11 11 12 11 9 9 12 17 23 29 37 44 54 65 75 83 87 89 90 89 89 88 87 87 87 85 82 80 80 81 82 83 83 84 84 84 85 85 84 84 84 86 86 87 87 87 86 86 84 80 77 76 71 69 69 63 57 60 60 54 52 52 52 52 51 46 39 41 45
74 76 78 79 79 74 65 54 49 47 40 30 21 15 12 10 12 13 13 12 12 14 14 12 10 11 14 19 26 33 40 49 59 70 79 85 88 90 90 90 89 88 88 88 87 85 82 81 81 81 82 82 83 84 86 86 86 86 86 86 86 86 87 88 88 88 88 88 84 81 79 75 72 73 67 60 61 61 57 55 54 53 52 51 48 43 42 45
74 76 78 79 79 74 65 55 49 46 40 31 22 16 13 11 13 15 15 14 14 14 14 14 12 11 12 16 22 29 36 45 54 64 74 82 87 89 90 91 90 90 90 90 89 87 84 82 80 81 83 83 82 84 86 86 87 88 88 87 86 86 88 89 89 90 90 90 89 86 84 80 76 75 70 63 63 63 60 58 57 55 54 52 50 47 45 45
75 76 78 79 78 74 66 55 49 46 40 31 22 16 14 12 13 16 17 17 15 15 15 15 14 13 13 14 18 25 32 40 49 58 69 78 85 88 90 91 91 91 90 90 89 88 85 82 81 82 83 81 81 84 86 87 88 89 88 87 85 86 88 90 91 92 93 93 93 91 89 86 80 78 73 67 66 66 63 62 60 57 56 55 53 51 49 47
75 76 77 79 78 74 67 56 49 46 40 31 22 16 14 13 14 17 18 19 18 17 16 15 15 15 14 14 16 21 28 36 44 53 63 73 81 87 90 91 91 91 91 90 90 89 87 85 83 83 82 82 83 85 86 86 87 88 88 86 86 86 88 90 91 93 94 95 95 94 93 91 85 80 76 71 69 69 68 66 63 59 59 59 57 54 51 49
75 76 77 79 78 75 67 58 50 46 39 30 22 16 14 14 14 16 19 20 20 19 18 17 17 17 16 16 17 19 23 31 39 48 58 68 77 84 88 90 91 92 91 91 90 90 89 87 85 83 83 84 85 84 84 85 85 86 86 86 87 87 88 89 91 93 94 95 96 96 95 95 91 86 82 77 73 71 71 71 67 62 61 62 60 56 53 52
76 77 77 78 78 75 68 59 51 46 39 30 22 17 14 14 14 16 18 20 21 21 21 20 19 19 19 19 19 20 22 27 34 43 52 62 72 80 85 89 90 91 92 91 90 90 90 88 86 85 84 85 85 84 84 84 84 84 86 87 89 89 89 90 92 93 94 95 97 98 97 96 95 91 88 84 78 74 73 75 72 66 63 64 63 59 56 54
77 77 77 78 78 75 69 60 52 46 38 28 21 17 14 14 14 16 18 20 21 21 22 22 22 22 21 21 21 22 23 25 30 38 47 56 66 75 82 87 89 90 91 91 90 89 89 89 88 86 85 85 85 84 84 84 85 85 86 88 89 90 90 91 92 93 95 95 97 100 100 99 97 95 93 89 85 80 76 76 76 72 67 65 65 63 60 57
77 77 77 78 78 75 69 60 52 46 37 28 21 16 14 14 14 16 18 19 20 21 22 23 24 24 23 23 23 24 25 26 29 34 41 51 60 70 78 84 88 90 91 91 90 90 90 90 90 88 86 85 84 84 84 84 85 86 87 88 89 90 91 91 92 94 95 96 98 99 100 101 99 97 96 93 91 87 81 77 77 76 72 68 66 65 63 60
77 77 77 77 77 75 68 60 52 45 36 26 20 16 13 13 14 16 17 18 20 20 21 23 24 24 24 25 25 25 26 28 30 33 38 46 55 65 74 81 86 89 90 91 91 90 90 90 90 89 87 86 84 84 84 85 85 86 87 88 89 91 92 92 93 95 95 96 97 96 97 101 102 99 97 96 95 93 89 83 78 77 76 73 69 67 65 63
77 77 77 77 77 74 68 60 52 44 34 25 19 14 12 12 14 15 17 18 19 20 20 21 23 23 24 24 25 26 28 29 31 33 36 42 49 59 69 77 83 87 90 91 91 91 91 91 90 89 88 87 85 85 85 85 86 86 86 87 88 90 91 92 93 95 95 96 98 97 95 98 103 103 100 98 98 97 95 92 85 79 76 75 73 70 67 64
77 76 76 76 76 72 66 59 51 42 32 23 18 14 11 12 14 15 17 18 19 20 20 21 22 22 23 23 24 26 27 29 32 34 36 40 45 53 62 71 79 85 88 91 91 91 92 91 90 89 89 88 87 86 86 86 86 86 86 87 88 89 90 91 92 94 95 96 97 98 97 97 100 104 104 101 100 100 99 97 94 88 81 77 75 74 71 66
76 76 75 75 75 70 64 57 49 39 29 22 17 13 11 12 14 16 18 19 20 21 21 21 21 22 22 22 23 24 26 28 31 34 36 39 43 48 56 65 74 81 86 89 91 92 93 92 90 90 90 90 90 88 87 86 86 86 87 87 88 88 89 89 91 92 94 96 97 97 99 98 99 102 105 104 103 102 102 100 98 95 90 84 79 76 75 71
Wind_Direction
321 320 318 317 315 313 310 308 305 302 298 294 292 291 290 289 286 281 277 273 266 257 248 239 234 233 231 227 224 222 220 218 219 220 221 218 216 216 216 216 214 211 209 207 208 207 206 205 204 200 197 196 195 196 193 191 191 186 187 193 200 202 189 179 180 191 183 188 166 105 90 82 75 65 62 59 54 55 54 53 53 54 56 55 52 52 52 53
314 313 313 313 313 313 312 310 308 304 301 296 291 287 285 284 283 281 278 273 269 263 256 246 238 233 231 228 225 222 220 218 217 218 220 218 216 215 215 215 214 211 208 207 207 207 206 205 203 201 197 195 194 195 194 191 189 186 187 191 201 207 192 183 189 195 194 194 150 111 107 87 78 69 66 61 56 57 57 56 54 54 57 58 55 52 53 54
309 309 310 311 312 313 312 311 309 307 303 299 295 289 285 281 279 278 277 274 270 265 260 253 245 237 232 229 226 223 220 218 216 217 218 217 217 215 214 214 213 212 208 207 207 207 206 204 202 200 197 195 194 195 194 191 189 187 188 193 202 203 194 190 195 197 194 193 158 131 126 95 82 73 70 64 57 56 59 59 56 54 57 60 59 55 54 55
309 309 310 311 312 311 311 309 307 305 302 299 295 291 286 282 278 275 274 273 270 266 262 257 250 243 235 230 227 224 221 218 216 217 217 216 216 215 213 212 212 212 209 207 207 207 206 203 201 200 198 195 193 194 194 191 188 188 189 195 201 200 196 195 197 197 191 185 172 159 136 103 91 81 75 67 58 56 57 60 59 55 57 59 61 59 56 56
309 310 311 311 311 310 309 308 307 305 302 299 296 291 287 282 278 274 271 270 269 267 262 258 253 248 240 233 228 225 222 218 217 217 216 215 215 215 213 211 211 212 210 207 207 206 205 202 202 201 198 195 193 193 193 191 188 189 192 196 198 197 198 196 197 198 192 184 178 167 135 106 99 88 78 70 59 58 56 58 59 56 57 59 61 61 59 58
308 308 309 308 308 308 309 309 308 307 304 301 298 293 289 283 278 275 271 267 265 265 263 259 254 250 244 237 231 226 222 219 217 218 216 214 214 214 213 211 209 211 210 207 206 205 204 202 201 201 199 195 193 192 192 191 188 189 194 195 196 198 198 197 197 199 194 185 180 168 136 108 103 95 85 78 63 60 58 56 55 55 57 60 61 62 61 60
306 306 306 307 308 308 308 308 308 307 305 302 299 295 291 286 281 275 271 267 264 262 261 259 255 251 246 240 234 229 224 220 217 218 216 214 214 213 213 211 209 210 209 207 205 204 203 202 201 200 199 196 193 192 192 191 188 189 191 192 196 200 199 196 200 203 201 190 181 173 157 135 123 118 99 87 74 64 61 55 52 52 54 59 62 61 61 62
304 305 306 307 308 307 307 306 306 306 304 302 299 295 291 287 283 278 272 268 264 260 257 257 255 251 247 242 236 230 226 222 218 217 216 214 214 212 212 212 209 208 208 206 205 204 203 201 201 200 198 196 193 191 192 190 189 191 188 188 196 201 200 199 201 205 207 198 183 183 187 195 200 186 150 104 86 72 65 56 51 51 51 57 62 62 60 62
305 306 307 308 307 306 305 305 305 305 305 303 300 296 292 288 284 279 274 269 264 260 256 253 252 251 247 242 238 232 227 224 220 218 216 215 214 212 212 211 208 207 207 206 204 204 203 201 201 200 198 196 193 191 191 188 189 195 190 187 194 196 197 199 201 206 211 206 190 187 193 202 214 204 173 121 91 74 66 59 53 50 50 53 61 63 59 61
306 307 308 308 307 306 305 304 305 306 306 304 300 296 292 288 284 280 275 271 265 261 256 252 249 248 246 242 238 233 228 226 222 219 216 215 214 212 211 210 208 206 206 205 204 204 203 201 201 200 198 196 193 191 190 187 189 196 191 188 193 194 195 197 200 205 210 213 203 189 194 218 221 197 168 134 106 96 74 65 56 51 51 51 57 64 61 59
307 308 308 308 307 305 304 304 305 306 306 304 301 297 293 289 285 281 276 271 266 261 256 252 248 246 244 241 237 233 230 226 223 221 218 215 214 213 211 210 208 206 205 204 203 203 202 202 201 199 198 195 193 191 190 188 190 194 191 189 194 194 201 205 205 206 206 212 211 197 200 224 226 201 180 187 164 134 95 72 60 53 53 51 54 61 62 60
309 309 310 309 308 306 305 305 306 306 306 305 302 298 294 291 286 281 276 271 265 260 255 251 247 243 242 240 237 233 230 225 222 221 219 216 215 214 212 209 207 205 204 203 203 203 202 202 200 199 197 196 193 191 190 190 191 194 191 191 193 191 197 205 205 205 204 207 209 205 199 204 222 217 204 205 188 155 121 83 63 54 54 53 52 55 61 62
310 311 311 311 310 308 307 307 307 307 306 305 302 299 295 292 287 282 276 270 264 259 254 249 245 241 239 238 236 232 228 225 221 220 220 217 214 214 212 210 207 205 203 201 202 203 203 202 199 198 197 196 194 192 191 190 191 193 191 190 192 190 193 201 205 205 204 203 203 202 193 198 226 220 199 200 200 174 149 102 71 54 53 55 53 51 57 63
312 313 313 313 311 310 309 308 308 307 307 306 303 300 297 293 288 282 275 269 263 257 252 247 243 239 236 235 234 231 227 225 220 218 219 218 215 214 212 210 208 206 203 200 201 202 202 201 199 199 197 196 194 192 191 190 191 193 191 190 191 192 194 198 203 203 201 200 200 198 192 208 229 217 194 211 214 182 158 127 88 62 50 55 56 49 51 61
314 315 315 314 313 312 310 309 309 309 308 307 305 302 299 294 289 282 275 267 261 255 250 245 240 236 233 231 231 229 226 224 220 217 218 218 216 214 213 211 208 206 203 200 201 202 202 200 199 198 197 195 194 192 191 190 191 191 191 193 191 193 196 197 197 196 195 195 196 197 197 209 216 211 208 225 221 188 163 162 126 84 52 54 59 51 46 55
315 316 316 316 314 313 312 311 311 310 310 309 307 305 301 297 291 283 274 266 259 253 247 243 238 234 231 228 227 227 225 222 219 216 216 217 216 214 213 211 209 207 203 201 201 202 202 201 200 199 196 195 193 192 191 191 191 189 190 195 194 191 195 197 196 194 192 189 191 197 201 204 201 202 213 224 222 197 176 182 173 113 73 60 63 55 45 49
317 318 318 317 316 315 314 313 313 313 312 311 309 307 304 299 293 285 275 265 257 250 244 240 235 231 228 225 224 225 224 221 218 215 214 215 216 214 212 211 209 207 204 201 200 201 202 202 201 199 197 195 194 192 191 191 191 188 188 192 194 193 195 196 197 198 194 186 188 197 203 202 196 196 207 221 219 200 184 187 187 174 132 79 72 62 47 45
320 321 320 319 317 316 316 315 315 315 314 313 312 310 307 302 295 286 276 265 255 247 241 236 232 228 225 222 221 221 222 220 217 213 212 213 214 214 212 211 209 207 204 201 200 201 202 202 201 200 198 196 194 193 191 191 191 189 187 188 193 196 198 198 198 200 198 189 188 195 202 201 198 197 202 216 221 203 188 187 187 188 177 111 89 73 54 45
322 323 322 320 319 319 318 317 317 317 316 316 314 312 309 304 297 288 276 264 253 244 237 232 228 224 221 219 218 218 219 218 215 212 210 210 212 212 211 210 209 208 205 201 199 200 201 202 201 200 199 196 194 193 191 191 191 188 186 185 190 195 199 199 198 198 196 192 190 191 198 203 200 199 199 209 224 215 195 186 185 186 201 165 111 87 65 50
325 324 323 322 321 321 320 319 319 319 319 318 316 314 310 305 298 288 276 263 251 241 234 228 224 221 218 216 215 215 216 216 213 211 209 209 210 211 210 209 209 207 205 202 199 199 201 202 201 201 199 196 193 192 192 192 191 188 185 185 185 190 197 199 198 196 194 194 193 190 198 208 205 200 198 204 224 227 204 188 184 183 203 203 136 104 80 61
326 325 325 324 323 322 322 321 321 321 321 320 318 315 311 305 298 287 275 263 250 240 231 224 220 217 215 213 212 212 213 213 212 210 209 207 208 209 208 208 208 207 205 202 199 199 201 202 202 201 199 196 193 192 194 193 192 189 186 185 183 185 193 198 198 195 192 197 198 194 199 208 207 201 197 205 225 232 213 194 187 182 195 201 153 123 97 74
327 327 326 326 325 324 324 324 323 323 323 321 320 316 311 305 298 288 276 263 250 238 229 222 217 214 211 210 209 209 210 211 210 209 208 206 206 207 207 207 207 206 205 203 200 199 200 203 203 201 198 196 193 192 194 193 193 191 187 184 183 185 190 194 196 195 193 196 197 194 196 203 206 202 196 202 220 229 218 199 190 185 191 196 173 159 148 100
329 328 328 327 326 326 326 326 326 325 325 323 321 316 311 305 299 289 277 264 250 238 228 220 214 211 209 207 207 207 208 208 208 208 207 205 205 205 205 205 206 206 205 204 200 199 201 203 202 200 198 196 194 193 193 193 193 192 188 183 184 187 188 189 192 194 196 199 198 193 191 196 202 202 199 201 208 219 219 204 191 190 194 195 183 172 169 148
330 330 330 329 328 328 328 328 328 327 326 325 322 317 312 306 299 290 277 264 250 237 227 219 213 209 207 205 204 205 206 206 207 207 206 204 204 204 204 204 204 204 204 204 202 200 201 200 200 200 199 197 195 194 193 193 192 192 189 184 185 188 188 188 189 191 196 203 204 197 192 193 196 199 204 205 202 207 216 207 192 195 200 197 186 174 169 172
331 332 331 330 330 330 330 330 330 329 328 327 324 318 312 306 300 290 278 265 250 236 226 217 211 207 205 203 203 203 204 205 205 206 205 204 204 203 203 203 203 203 204 204 203 201 200 199 199 200 199 197 196 195 193 193 192 192 190 187 188 188 187 189 189 189 194 202 205 201 196 198 200 201 205 208 204 202 210 210 196 196 202 200 194 188 184 190
333 333 332 332 332 332 333 332 332 331 330 329 325 318 311 305 299 291 279 265 250 236 225 216 210 206 203 202 201 201 202 203 204 204 204 204 204 203 203 203 202 202 204 205 204 201 200 199 200 201 199 197 197 195 194 193 192 192 191 190 190 188 187 189 188 188 192 198 204 204 199 200 204 204 204 207 207 203 206 210 202 198 203 204 202 199 196 201
334 334 333 334 334 335 335 335 334 332 332 330 326 319 310 303 298 293 282 267 250 234 223 215 209 205 202 201 200 200 201 201 202 203 203 204 204 203 203 203 201 201 203 205 204 201 200 199 200 201 200 198 197 196 194 193 193 191 191 191 190 188 188 190 189 188 192 197 203 206 205 205 207 206 205 207 208 206 206 208 204 202 205 208 208 204 202 205
335 335 335 336 337 337 337 336 335 334 333 331 327 319 308 300 298 295 285 270 252 235 222 213 208 204 201 200 200 200 200 200 201 201 202 203 204 203 203 203 202 202 203 204 203 201 200 199 199 200 201 199 198 197 195 194 193 191 191 192 191 189 189 190 189 186 188 194 199 201 205 209 210 208 207 208 208 208 208 207 204 203 207 211 211 208 206 208
336 336 337 338 339 339 339 338 337 335 334 332 327 319 306 297 295 293 286 273 254 237 222 212 207 203 201 200 199 199 200 200 200 201 201 202 203 203 203 203 203 202 203 204 203 202 201 200 200 200 201 200 198 197 196 194 193 192 192 192 192 191 189 190 190 185 184 188 193 197 202 206 209 209 208 208 210 211 210 208 207 206 208 212 213 209 209 212
337 338 339 341 341 341 341 340 338 337 335 332 328 319 305 292 288 287 283 273 254 237 223 213 207 202 200 199 199 199 199 199 200 200 201 202 203 203 202 203 203 203 203 204 204 203 202 201 200 201 201 201 200 198 197 195 193 192 192 192 193 192 190 190 190 185 183 186 191 199 204 204 205 206 206 206 209 211 211 210 210 209 209 212 213 210 211 215
338 340 342 343 343 343 342 341 339 338 335 332 328 319 306 291 279 281 280 273 255 237 224 214 207 203 201 199 199 199 199 199 199 200 201 202 203 203 202 202 203 203 203 203 204 204 202 201 201 201 201 202 200 199 198 196 194 193 192 193 193 193 191 192 191 185 183 187 193 200 205 204 203 204 205 205 208 209 209 211 212 211 211 213 213 212 215 219
340 342 344 345 345 345 344 342 340 339 336 333 328 319 308 292 274 273 277 273 257 237 224 214 208 204 202 200 198 198 199 199 199 200 200 201 202 203 203 202 202 203 202 202 203 204 203 202 202 201 202 202 201 199 198 197 195 193 193 193 194 194 192 193 192 188 184 186 193 199 203 204 203 202 201 200 203 205 205 209 213 212 211 212 212 214 219 224
341 343 345 346 346 346 345 343 342 341 337 333 328 319 308 294 276 269 270 270 260 238 224 216 209 205 203 201 199 198 198 199 199 200 200 201 202 203 203 203 202 202 202 201 202 203 203 203 203 203 202 202 202 200 199 198 196 194 194 194 195 195 194 194 193 190 186 186 192 198 199 200 203 202 198 195 198 202 202 206 210 209 208 208 209 215 224 227
343 345 347 348 348 347 346 344 343 342 338 333 329 319 308 293 277 267 262 265 259 240 225 216 210 206 204 202 200 198 198 198 199 199 200 201 201 202 203 203 203 202 201 201 201 202 202 202 203 203 202 202 202 201 200 199 197 196 195 195 196 196 195 196 194 192 189 187 190 194 194 197 201 200 197 198 202 203 205 209 209 207 206 205 205 211 220 224
344 347 348 349 349 348 346 345 344 343 339 334 328 319 307 292 273 258 253 259 255 239 226 217 211 207 205 202 201 200 198 198 199 199 200 201 201 202 202 203 203 202 201 201 201 201 202 202 203 204 203 203 203 202 201 200 199 198 197 196 197 197 196 197 196 194 192 189 188 190 190 194 199 198 194 201 207 204 206 210 209 206 206 207 207 207 212 218
345 348 349 350 349 349 347 345 344 343 340 334 327 318 306 291 272 250 238 246 245 234 226 218 212 208 206 203 201 201 200 199 199 199 200 201 202 202 202 203 203 202 203 202 201 200 201 201 203 203 203 203 203 202 202 201 200 199 198 197 198 198 198 199 197 195 194 192 188 188 190 192 196 195 191 199 209 208 206 207 206 205 204 208 213 211 211 216
346 349 350 350 350 349 348 345 344 344 341 334 326 316 304 289 271 250 228 227 227 223 219 216 213 209 206 205 202 201 200 200 199 200 200 201 201 202 202 203 203 203 203 203 202 201 201 201 202 203 204 203 203 202 202 202 201 200 200 198 199 199 200 200 199 197 196 195 190 189 191 190 192 194 192 196 206 210 208 206 206 205 200 205 216 215 213 216
347 349 350 350 350 350 348 346 344 344 341 334 326 314 301 285 268 252 230 218 213 209 206 209 212 209 207 206 203 201 201 200 200 200 200 201 201 202 202 203 203 203 203 203 203 202 201 201 202 204 204 204 203 203 203 202 202 202 201 200 200 200 200 201 200 198 198 197 193 192 192 190 191 195 194 194 203 209 209 207 208 207 201 203 214 217 215 217
348 350 351 351 350 350 348 346 344 344 341 335 325 312 296 278 262 251 236 219 207 199 194 198 205 208 208 206 204 203 202 201 201 201 201 201 201 202 202 203 203 203 203 203 203 203 202 201 203 204 204 204 204 203 203 202 202 204 203 201 202 201 200 202 202 200 200 199 195 193 193 191 192 195 195 195 200 206 207 206 209 210 208 209 211 214 216 217
348 350 351 351 350 350 348 346 344 343 341 335 325 309 292 269 253 247 239 224 209 199 190 189 197 203 206 206 204 204 203 202 202 201 201 201 202 202 202 203 203 203 204 203 203 204 203 203 203 205 205 205 204 204 203 202 203 204 203 203 203 202 201 202 203 201 201 201 199 196 196 195 193 195 198 196 198 203 205 204 207 210 212 212 210 211 216 218
348 350 351 351 350 349 348 346 344 342 340 335 325 307 288 264 245 242 239 228 215 205 194 187 191 198 203 205 205 204 204 204 203 202 202 202 202 202 203 203 204 204 204 204 203 204 204 204 204 205 206 205 205 205 205 203 203 203 204 204 203 202 202 203 204 203 202 203 203 200 199 199 196 196 200 197 196 202 203 201 205 209 211 212 208 208 215 219
348 350 351 350 350 349 347 345 343 342 339 334 325 307 287 264 240 235 236 231 222 213 203 193 191 196 202 204 204 204 204 204 204 203 203 203 202 203 203 204 204 204 205 205 204 204 204 204 204 205 206 206 205 206 206 205 204 204 205 205 203 202 203 204 204 204 203 203 205 204 203 203 199 198 200 197 197 202 202 199 203 206 209 211 208 207 213 218
348 350 351 350 349 348 347 345 343 342 338 332 323 306 286 266 241 229 230 231 225 219 212 205 199 198 203 205 205 205 205 205 205 205 204 203 203 203 204 204 205 205 206 205 205 205 205 205 205 206 206 205 206 207 207 206 205 205 205 205 204 204 204 205 205 205 204 203 205 206 207 207 203 199 200 199 200 204 202 199 202 204 206 208 208 208 212 215
347 349 350 350 349 347 346 344 342 341 338 331 321 305 286 269 246 228 225 227 226 222 218 214 209 205 205 208 208 207 206 205 205 205 205 204 204 204 204 205 206 206 206 206 206 205 206 206 206 206 205 205 206 207 207 207 207 206 205 205 205 206 206 206 206 207 206 205 205 206 208 209 207 203 201 201 200 202 202 200 201 203 204 206 207 208 211 214
346 348 350 349 348 347 345 343 341 340 337 330 319 303 283 269 252 232 223 222 223 224 221 219 217 215 213 213 213 212 211 208 206 206 206 205 205 205 205 205 206 207 207 208 207 206 206 206 207 207 206 206 206 207 208 208 208 207 206 205 206 207 207 207 207 209 209 207 206 207 209 210 210 208 205 203 200 201 202 201 201 202 203 205 206 207 210 212
346 347 349 349 347 346 344 342 341 339 336 329 318 301 279 265 253 238 226 221 221 222 222 221 219 219 219 219 218 217 216 213 209 208 207 207 206 205 206 206 207 208 208 209 208 208 208 208 208 208 208 207 207 207 208 208 209 208 207 207 207 207 208 208 208 209 210 209 208 209 210 210 211 211 209 207 204 202 202 202 202 202 203 205 205 205 208 211
345 346 348 348 347 345 343 342 340 338 335 328 316 299 276 260 250 239 229 223 221 221 222 222 221 220 221 222 222 222 220 218 214 210 209 208 207 207 207 207 208 208 209 209 209 209 209 209 209 209 209 209 208 207 208 208 209 209 209 208 207 207 208 208 209 210 210 210 210 211 211 211 211 212 213 211 209 207 204 202 204 204 203 204 205 206 209 212
344 346 347 347 346 344 343 342 339 337 334 327 315 298 276 258 246 238 230 224 221 221 222 223 222 222 222 224 225 225 224 222 219 215 211 209 208 208 208 208 208 209 209 210 210 210 210 210 210 210 211 210 209 208 208 209 210 210 210 210 208 208 209 209 210 211 211 212 212 212 213 213 211 212 214 213 212 212 209 205 205 206 207 206 206 207 210 212
344 345 346 346 345 343 342 341 339 337 333 325 314 299 275 255 243 237 231 225 221 220 221 223 224 224 223 225 227 227 228 226 223 218 215 211 210 209 209 209 209 209 210 210 211 211 212 212 211 211 212 211 211 210 210 210 211 211 211 211 210 209 210 210 210 212 212 212 213 214 214 215 213 212 214 214 214 215 214 210 207 207 208 208 208 208 211 213
344 345 346 345 344 343 342 341 340 337 332 324 313 297 272 247 237 233 230 225 222 222 223 224 225 225 225 226 228 229 229 228 226 222 218 215 212 211 210 210 210 210 210 211 211 211 213 213 212 212 213 213 212 211 211 211 211 212 212 212 212 211 211 211 211 212 213 213 214 215 215 216 215 214 214 215 215 216 217 216 212 208 208 209 209 209 211 214
343 344 345 345 343 342 341 341 340 337 331 322 312 296 267 240 228 226 225 222 220 221 223 224 226 227 227 229 231 231 231 230 228 224 221 218 214 213 212 211 211 211 211 211 211 211 213 213 213 213 214 214 213 213 213 213 213 213 213 213 213 213 212 212 213 213 214 214 215 216 217 217 217 216 215 215 215 216 217 218 217 214 212 211 210 209 211 214
343 344 345 344 342 341 341 341 340 337 330 320 310 295 264 235 223 220 219 217 216 218 221 223 226 228 229 232 234 234 233 231 229 226 222 219 217 215 214 212 212 212 212 212 211 211 213 213 213 214 215 215 214 214 214 214 214 214 214 214 214 214 214 214 214 214 215 215 215 217 218 218 218 218 217 217 217 216 217 219 219 219 217 216 214 211 210 213
Height
10927 10926 10925 10924 10924 10923 10923 10922 10922 10921 10921 10920 10919 10918 10917 10917 10916 10916 10916 10916 10917 10918 10919 10920 10920 10921 10922 10924 10926 10929 10932 10934 10937 10941 10943 10944 10947 10951 10955 10959 10964 10967 10971 10975 10978 10982 10985 10988 10990 10994 10997 11001 11004 11007 11010 11012 11015 11018 11019 11020 11021 11022 11023 11024 11024 11024 11023 11023 11023 11023 11023 11021 11020 11020 11019 11017 11016 11015 11013 11013 11013 11012 11010 11009 11008 11006 11004 11002
10925 10924 10923 10922 10920 10919 10919 10918 10918 10917 10917 10916 10916 10915 10914 10913 10912 10912 10912 10913 10913 10914 10915 10916 10917 10917 10918 10920 10922 10924 10927 10930 10933 10936 10937 10940 10944 10948 10951 10955 10960 10964 10968 10972 10974 10977 10980 10983 10987 10991 10995 10999 11002 11006 11009 11011 11015 11017 11018 11020 11021 11022 11023 11024 11024 11024 11023 11023 11023 11023 11023 11022 11021 11021 11020 11018 11018 11016 11015 11014 11014 11013 11011 11010 11009 11008 11006 11003
10922 10921 10920 10919 10918 10916 10915 10914 10913 10912 10912 10911 10911 10910 10910 10909 10909 10908 10908 10908 10909 10909 10910 10911 10912 10913 10914 10915 10917 10919 10922 10925 10929 10931 10932 10936 10941 10944 10947 10951 10956 10960 10964 10967 10970 10973 10976 10980 10985 10989 10993 10997 11001 11004 11007 11010 11014 11016 11018 11020 11021 11021 11023 11024 11023 11023 11023 11023 11023 11023 11024 11022 11022 11022 11021 11020 11019 11018 11017 11015 11015 11014 11013 11011 11010 11009 11007 11005
10919 10917 10916 10915 10914 10913 10912 10910 10909 10908 10907 10906 10905 10905 10905 10904 10904 10904 10903 10903 10904 10904 10905 10906 10907 10909 10910 10911 10913 10915 10917 10921 10924 10925 10927 10932 10936 10939 10942 10947 10952 10955 10959 10963 10966 10970 10974 10979 10984 10987 10991 10995 10999 11002 11005 11009 11012 11015 11017 11019 11020 11021 11022 11023 11023 11023 11023 11023 11023 11024 11024 11022 11022 11023 11021 11021 11021 11020 11018 11017 11016 11015 11014 11012 11011 11010 11008 11006
10915 10914 10912 10911 10909 10908 10907 10905 10904 10904 10902 10901 10899 10898 10898 10898 10898 10898 10898 10898 10898 10899 10900 10901 10902 10903 10905 10907 10908 10910 10913 10916 10919 10920 10923 10927 10930 10934 10938 10943 10948 10951 10955 10959 10963 10967 10972 10977 10981 10984 10988 10992 10996 11000 11004 11007 11010 11013 11015 11016 11018 11020 11022 11023 11023 11023 11023 11023 11023 11024 11023 11023 11023 11023 11022 11022 11022 11021 11020 11018 11017 11017 11015 11014 11012 11011 11010 11008
10912 10910 10909 10907 10905 10904 10902 10900 10899 10898 10897 10895 10894 10892 10891 10891 10891 10891 10892 10892 10892 10893 10893 10895 10896 10897 10899 10901 10903 10905 10908 10912 10914 10915 10919 10923 10925 10929 10934 10939 10943 10946 10951 10956 10960 10965 10969 10974 10978 10982 10985 10989 10994 10998 11001 11005 11009 11012 11015 11016 11018 11020 11021 11022 11022 11022 11023 11023 11023 11023 11024 11023 11023 11024 11023 11023 11022 11022 11021 11020 11019 11018 11016 11015 11014 11013 11011 11009
10908 10906 10905 10903 10901 10899 10897 10895 10894 10892 10890 10889 10887 10886 10885 10884 10884 10884 10884 10885 10886 10886 10887 10888 10890 10891 10893 10895 10898 10901 10904 10906 10909 10910 10914 10917 10920 10924 10929 10933 10938 10942 10947 10952 10957 10962 10966 10971 10975 10978 10982 10986 10991 10996 11000 11003 11007 11010 11013 11016 11018 11018 11019 11020 11021 11022 11023 11023 11023 11023 11024 11024 11024 11024 11024 11023 11023 11023 11022 11021 11021 11019 11018 11016 11015 11014 11013 11011
10904 10902 10900 10899 10896 10894 10893 10891 10889 10887 10885 10883 10881 10879 10878 10877 10876 10876 10876 10877 10878 10879 10880 10881 10882 10884 10886 10889 10892 10895 10899 10901 10903 10905 10908 10912 10915 10920 10923 10928 10933 10938 10943 10949 10954 10959 10963 10967 10970 10974 10979 10983 10988 10994 10998 11002 11007 11009 11011 11014 11016 11017 11017 11018 11020 11021 11023 11023 11023 11023 11024 11024 11025 11025 11025 11024 11023 11023 11023 11023 11022 11021 11020 11018 11016 11016 11014 11012
10899 10897 10895 10894 10891 10889 10887 10885 10883 10881 10879 10876 10874 10872 10870 10869 10868 10868 10868 10868 10869 10870 10872 10873 10875 10876 10879 10882 10885 10889 10894 10896 10898 10900 10903 10907 10910 10914 10918 10922 10929 10934 10939 10945 10950 10954 10958 10962 10966 10970 10976 10980 10986 10991 10995 11000 11005 11007 11009 11012 11014 11015 11016 11017 11019 11021 11022 11023 11023 11023 11024 11024 11024 11025 11025 11024 11024 11024 11023 11023 11023 11022 11021 11020 11018 11017 11016 11014
10894 10892 10890 10888 10886 10883 10881 10879 10876 10874 10872 10869 10867 10864 10862 10861 10859 10859 10859 10859 10860 10861 10863 10864 10866 10868 10870 10874 10877 10883 10887 10889 10893 10895 10898 10901 10905 10908 10912 10917 10923 10929 10935 10941 10946 10951 10955 10959 10962 10967 10972 10978 10983 10988 10992 10996 11000 11003 11006 11009 11011 11013 11014 11016 11018 11020 11022 11023 11023 11023 11023 11024 11024 11025 11025 11025 11024 11024 11024 11024 11024 11023 11022 11021 11020 11018 11017 11016
10889 10886 10884 10882 10880 10877 10874 10871 10869 10866 10864 10861 10858 10856 10853 10851 10850 10849 10849 10849 10850 10850 10852 10855 10857 10859 10862 10865 10870 10875 10879 10882 10887 10890 10893 10896 10899 10903 10907 10913 10918 10924 10931 10937 10942 10947 10952 10954 10957 10963 10969 10974 10979 10984 10988 10992 10996 11000 11004 11007 11009 11011 11013 11014 11016 11019 11021 11022 11023 11023 11023 11023 11024 11025 11025 11025 11025 11025 11025 11024 11024 11024 11023 11023 11021 11020 11019 11018
10883 10881 10878 10876 10873 10870 10867 10864 10861 10857 10854 10851 10848 10846 10843 10841 10839 10838 10837 10837 10838 10839 10841 10843 10846 10849 10852 10856 10862 10867 10870 10874 10880 10883 10887 10891 10894 10898 10903 10907 10913 10919 10926 10933 10938 10943 10946 10948 10954 10960 10966 10970 10975 10980 10985 10989 10993 10998 11002 11005 11007 11010 11012 11013 11015 11018 11020 11021 11022 11023 11023 11023 11024 11025 11025 11025 11025 11025 11025 11025 11025 11025 11024 11024 11023 11021 11020 11019
10878 10875 10872 10869 10866 10862 10859 10855 10851 10848 10844 10841 10837 10834 10832 10830 10828 10826 10825 10824 10824 10826 10828 10831 10834 10838 10842 10847 10852 10857 10861 10866 10872 10877 10881 10885 10888 10892 10897 10902 10908 10913 10920 10927 10933 10937 10940 10945 10951 10956 10961 10966 10971 10976 10981 10986 10991 10995 10999 11002 11005 11009 11010 11011 11013 11016 11019 11020 11021 11022 11023 11023 11023 11024 11024 11025 11025 11025 11025 11025 11025 11025 11025 11025 11024 11023 11022 11020
10873 10869 10866 10862 10858 10855 10851 10846 10842 10838 10833 10829 10825 10822 10819 10816 10814 10812 10811 10810 10811 10812 10814 10818 10822 10826 10831 10837 10842 10847 10852 10857 10865 10871 10875 10879 10883 10887 10892 10898 10903 10909 10915 10922 10927 10931 10935 10940 10947 10951 10956 10962 10967 10973 10978 10983 10988 10993 10998 11001 11004 11007 11009 11010 11012 11014 11017 11019 11020 11022 11022 11022 11022 11023 11023 11024 11025 11025 11025 11025 11025 11026 11026 11026 11025 11025 11024 11022
10867 10864 10859 10855 10850 10847 10842 10837 10832 10827 10822 10818 10813 10808 10805 10802 10799 10797 10796 10796 10796 10797 10800 10804 10809 10814 10820 10826 10831 10837 10843 10849 10857 10864 10869 10873 10878 10882 10887 10893 10898 10904 10910 10917 10922 10926 10930 10936 10941 10945 10951 10957 10963 10969 10974 10979 10985 10991 10998 11002 11003 11006 11008 11009 11009 11011 11014 11017 11019 11020 11021 11020 11020 11022 11023 11024 11025 11025 11025 11025 11026 11026 11027 11027 11026 11026 11025 11024
10861 10857 10853 10848 10842 10838 10833 10827 10821 10816 10811 10805 10800 10794 10790 10787 10783 10781 10780 10780 10781 10783 10786 10790 10795 10802 10808 10814 10821 10827 10833 10840 10849 10856 10862 10867 10872 10876 10881 10887 10893 10898 10905 10911 10917 10922 10927 10933 10936 10940 10946 10953 10958 10964 10970 10977 10982 10989 10996 11001 11002 11004 11007 11008 11008 11009 11011 11015 11018 11019 11019 11019 11019 11021 11023 11024 11025 11025 11025 11025 11026 11026 11027 11028 11027 11027 11027 11026
10855 10851 10846 10840 10834 10828 10823 10817 10810 10805 10799 10792 10786 10780 10775 10771 10767 10765 10764 10764 10765 10768 10771 10775 10782 10788 10795 10803 10811 10818 10824 10831 10839 10848 10854 10860 10865 10870 10875 10880 10886 10892 10898 10906 10912 10918 10923 10927 10931 10937 10943 10949 10954 10960 10967 10974 10980 10985 10991 10996 11000 11003 11005 11006 11007 11008 11010 11013 11017 11019 11019 11019 11019 11021 11023 11024 11024 11024 11025 11025 11026 11027 11027 11028 11028 11028 11028 11027
10848 10843 10838 10832 10826 10819 10813 10806 10799 10793 10786 10779 10772 10766 10760 10755 10751 10749 10748 10749 10750 10753 10756 10761 10768 10776 10784 10793 10801 10807 10813 10821 10830 10839 10846 10852 10857 10863 10868 10874 10879 10885 10892 10900 10907 10913 10917 10921 10927 10934 10939 10944 10950 10956 10963 10970 10976 10982 10988 10993 10998 11001 11003 11005 11005 11007 11009 11012 11015 11018 11019 11019 11019 11021 11022 11023 11023 11024 11024 11025 11026 11026 11028 11028 11028 11028 11029 11028
10841 10836 10830 10824 10817 10810 10803 10795 10788 10781 10773 10766 10758 10751 10745 10740 10736 10734 10733 10734 10736 10738 10742 10748 10755 10763 10772 10780 10788 10795 10803 10811 10820 10830 10837 10844 10849 10855 10861 10867 10873 10880 10887 10894 10901 10907 10911 10916 10923 10928 10931 10938 10945 10953 10959 10964 10970 10976 10983 10989 10994 10998 11001 11002 11003 11004 11007 11010 11013 11016 11018 11017 11018 11021 11022 11023 11023 11023 11024 11025 11025 11027 11028 11028 11028 11029 11029 11029
10834 10828 10822 10816 10808 10801 10793 10785 10777 10769 10761 10753 10745 10737 10731 10726 10723 10721 10720 10721 10722 10725 10729 10735 10742 10751 10759 10768 10776 10784 10793 10801 10811 10821 10828 10835 10841 10847 10855 10861 10866 10874 10881 10888 10895 10900 10905 10910 10915 10918 10924 10933 10943 10950 10955 10960 10965 10971 10978 10984 10989 10994 10997 10998 10999 11001 11005 11008 11011 11015 11017 11016 11018 11020 11022 11023 11023 11023 11024 11025 11025 11026 11028 11028 11029 11029 11030 11030
10827 10821 10814 10807 10800 10792 10784 10775 10767 10758 10749 10740 10732 10724 10718 10714 10712 10710 10709 10710 10712 10714 10718 10723 10731 10738 10747 10756 10765 10774 10783 10793 10803 10812 10819 10826 10833 10841 10848 10854 10860 10867 10875 10882 10889 10894 10900 10904 10907 10912 10922 10931 10940 10946 10951 10957 10963 10968 10974 10980 10986 10990 10992 10994 10996 11000 11003 11006 11009 11012 11014 11015 11017 11019 11021 11023 11024 11023 11024 11024 11025 11026 11027 11028 11029 11029 11030 11030
10819 10813 10807 10799 10792 10783 10774 10765 10756 10747 10737 10728 10720 10713 10708 10705 10703 10701 10701 10701 10703 10705 10708 10713 10720 10727 10736 10745 10755 10764 10774 10784 10793 10802 10809 10817 10826 10834 10841 10848 10854 10861 10868 10875 10882 10889 10894 10897 10901 10910 10920 10927 10935 10940 10945 10952 10959 10965 10971 10977 10982 10984 10987 10990 10994 10998 11001 11003 11006 11009 11012 11013 11016 11018 11020 11022 11023 11023 11023 11024 11024 11025 11027 11028 11028 11029 11030 11030
10812 10806 10799 10791 10783 10775 10766 10756 10746 10736 10727 10718 10711 10705 10700 10698 10696 10694 10694 10694 10695 10697 10700 10705 10711 10718 10727 10736 10746 10756 10765 10774 10783 10791 10800 10810 10819 10827 10834 10840 10847 10855 10862 10869 10876 10881 10883 10887 10898 10909 10915 10922 10929 10934 10940 10946 10954 10961 10967 10973 10978 10979 10982 10986 10990 10995 10998 11000 11003 11007 11010 11012 11014 11017 11018 11019 11020 11021 11022 11023 11023 11024 11026 11027 11027 11028 11029 11030
10806 10799 10791 10783 10775 10766 10757 10746 10736 10726 10717 10709 10703 10698 10694 10692 10690 10689 10688 10688 10689 10691 10694 10698 10704 10711 10719 10728 10738 10747 10756 10765 10775 10784 10793 10804 10812 10819 10826 10834 10841 10848 10855 10861 10867 10870 10874 10884 10896 10903 10909 10917 10923 10928 10934 10941 10948 10955 10962 10968 10971 10973 10978 10983 10987 10992 10996 10998 11002 11005 11008 11009 11012 11014 11015 11016 11018 11019 11020 11022 11022 11023 11025 11026 11027 11028 11029 11030
10800 10792 10784 10776 10767 10758 10748 10738 10727 10718 10709 10703 10697 10692 10689 10687 10685 10684 10683 10683 10684 10686 10689 10692 10698 10704 10712 10720 10730 10739 10748 10758 10767 10777 10788 10797 10805 10813 10821 10828 10834 10841 10847 10852 10857 10864 10873 10883 10889 10894 10902 10910 10916 10922 10928 10935 10943 10949 10957 10962 10964 10968 10975 10980 10986 10990 10993 10996 10999 11002 11005 11006 11008 11010 11012 11015 11016 11018 11019 11021 11021 11022 11024 11025 11026 11027 11028 11030
10794 10786 10778 10769 10759 10750 10740 10729 10719 10710 10703 10697 10692 10688 10685 10683 10681 10680 10680 10679 10680 10682 10684 10688 10692 10698 10705 10713 10722 10731 10740 10751 10761 10771 10781 10791 10799 10808 10814 10820 10827 10835 10840 10844 10851 10862 10872 10879 10885 10890 10897 10903 10909 10916 10923 10930 10937 10943 10951 10956 10960 10966 10973 10979 10985 10987 10990 10993 10996 10999 11002 11003 11005 11007 11010 11012 11015 11017 11018 11019 11020 11021 11023 11024 11025 11026 11027 11029
10788 10780 10772 10762 10753 10742 10732 10722 10712 10704 10698 10693 10688 10684 10681 10679 10678 10677 10677 10676 10677 10678 10680 10684 10688 10693 10699 10707 10715 10724 10733 10743 10753 10764 10774 10784 10792 10800 10807 10814 10822 10827 10832 10839 10849 10859 10866 10872 10879 10885 10891 10897 10903 10910 10917 10923 10930 10938 10945 10951 10958 10965 10971 10976 10982 10984 10987 10991 10994 10997 10999 11001 11002 11005 11008 11010 11013 11016 11016 11017 11018 11020 11021 11023 11024 11025 11026 11028
10783 10775 10766 10756 10746 10736 10726 10715 10706 10699 10693 10688 10684 10681 10678 10677 10675 10675 10674 10674 10675 10676 10678 10680 10684 10689 10695 10702 10709 10718 10727 10736 10745 10756 10766 10775 10784 10793 10802 10809 10815 10820 10826 10833 10842 10850 10857 10863 10870 10876 10883 10891 10897 10904 10912 10918 10926 10934 10940 10947 10955 10962 10966 10972 10977 10981 10984 10988 10991 10994 10996 10997 11000 11003 11006 11008 11011 11013 11014 11015 11017 11018 11020 11021 11023 11024 11025 11027
10777 10769 10761 10750 10740 10729 10719 10709 10701 10694 10689 10684 10681 10678 10676 10674 10673 10673 10672 10672 10672 10673 10675 10678 10681 10685 10691 10697 10704 10712 10721 10731 10740 10751 10760 10768 10777 10786 10795 10803 10809 10816 10821 10827 10836 10844 10851 10859 10866 10871 10877 10884 10892 10900 10907 10914 10923 10930 10936 10944 10952 10957 10962 10967 10971 10975 10979 10983 10986 10988 10991 10994 10998 11001 11003 11005 11007 11009 11011 11013 11015 11016 11018 11020 11021 11022 11024 11025
10772 10764 10755 10745 10734 10724 10714 10704 10697 10691 10685 10681 10678 10676 10674 10673 10672 10671 10670 10670 10671 10672 10673 10675 10678 10682 10687 10693 10700 10708 10717 10726 10736 10746 10755 10763 10772 10780 10790 10798 10805 10810 10815 10824 10834 10842 10849 10856 10862 10868 10874 10882 10891 10898 10905 10912 10920 10927 10934 10942 10948 10953 10957 10961 10966 10970 10974 10979 10982 10983 10987 10991 10995 10997 10999 11001 11003 11006 11009 11011 11013 11014 11016 11018 11020 11021 11023 11024
10768 10759 10750 10740 10729 10719 10709 10700 10693 10688 10682 10678 10675 10673 10672 10671 10670 10669 10668 10669 10669 10670 10671 10673 10676 10679 10683 10689 10695 10703 10712 10721 10730 10739 10748 10758 10767 10775 10783 10790 10797 10804 10812 10822 10831 10837 10845 10851 10857 10864 10871 10878 10886 10893 10902 10909 10915 10922 10930 10936 10942 10948 10952 10956 10961 10966 10971 10975 10978 10980 10984 10987 10991 10994 10996 10998 11000 11002 11006 11008 11010 11012 11014 11016 11018 11020 11022 11023
10763 10755 10745 10735 10725 10715 10706 10697 10691 10685 10680 10676 10673 10671 10670 10669 10668 10668 10667 10667 10668 10668 10669 10671 10674 10677 10681 10685 10691 10698 10707 10715 10724 10733 10742 10752 10761 10769 10776 10783 10791 10799 10807 10816 10824 10831 10840 10847 10853 10859 10864 10871 10880 10888 10896 10903 10909 10917 10924 10930 10936 10941 10946 10951 10957 10962 10967 10970 10973 10977 10981 10983 10986 10990 10993 10995 10997 11000 11003 11005 11007 11010 11013 11015 11017 11019 11021 11022
10759 10750 10741 10731 10721 10711 10702 10694 10688 10683 10678 10674 10671 10669 10668 10667 10667 10667 10666 10666 10666 10667 10668 10669 10672 10675 10678 10682 10688 10694 10702 10711 10719 10728 10738 10747 10755 10764 10772 10780 10787 10793 10801 10810 10818 10826 10834 10842 10847 10852 10859 10868 10875 10883 10890 10897 10905 10912 10918 10924 10930 10936 10942 10947 10953 10958 10963 10966 10969 10974 10977 10979 10982 10986 10989 10991 10993 10996 10999 11001 11004 11007 11010 11013 11015 11018 11019 11021
10755 10746 10737 10728 10718 10708 10699 10692 10686 10681 10676 10673 10670 10668 10666 10666 10666 10665 10665 10665 10665 10666 10666 10668 10670 10673 10676 10680 10686 10691 10697 10705 10714 10724 10733 10741 10750 10758 10766 10773 10779 10787 10797 10806 10813 10819 10827 10834 10839 10846 10855 10862 10870 10878 10885 10892 10900 10906 10911 10918 10924 10930 10935 10940 10945 10951 10958 10963 10966 10970 10973 10974 10978 10982 10985 10987 10988 10991 10994 10996 11000 11004 11007 11010 11012 11015 11017 11018
10751 10742 10733 10724 10714 10705 10696 10690 10684 10679 10675 10671 10668 10667 10665 10665 10665 10664 10664 10664 10664 10665 10665 10666 10668 10671 10674 10678 10683 10689 10695 10701 10710 10719 10727 10735 10743 10751 10759 10767 10775 10784 10792 10797 10804 10813 10822 10829 10834 10841 10849 10855 10862 10871 10878 10885 10892 10897 10903 10910 10916 10922 10927 10932 10937 10945 10952 10956 10959 10964 10967 10970 10975 10980 10982 10983 10985 10988 10990 10993 10997 11001 11004 11006 11008 11010 11012 11014
10747 10738 10730 10721 10712 10703 10694 10688 10682 10678 10674 10670 10667 10666 10664 10664 10664 10663 10664 10664 10664 10664 10664 10665 10667 10670 10673 10676 10681 10686 10692 10699 10706 10714 10721 10730 10739 10747 10756 10763 10772 10780 10785 10790 10799 10807 10814 10821 10827 10834 10841 10847 10854 10863 10870 10876 10882 10889 10897 10905 10911 10916 10921 10926 10933 10941 10946 10949 10953 10958 10962 10965 10971 10976 10978 10979 10981 10984 10987 10989 10993 10997 11000 11003 11005 11006 11008 11011
10743 10735 10726 10718 10709 10700 10692 10686 10681 10676 10672 10669 10666 10664 10663 10662 10662 10663 10663 10663 10663 10663 10664 10665 10666 10668 10671 10675 10678 10684 10689 10696 10702 10709 10716 10725 10733 10742 10750 10758 10766 10773 10779 10788 10795 10801 10807 10815 10821 10826 10831 10838 10847 10855 10861 10869 10878 10886 10892 10899 10905 10909 10914 10921 10929 10936 10941 10944 10949 10952 10956 10960 10965 10970 10972 10973 10976 10980 10983 10986 10989 10993 10997 11000 11001 11003 11006 11008
10739 10731 10723 10715 10706 10698 10691 10684 10679 10675 10670 10667 10665 10663 10662 10661 10661 10661 10662 10662 10663 10663 10663 10664 10665 10667 10670 10672 10676 10681 10686 10691 10698 10704 10711 10720 10728 10737 10744 10752 10760 10767 10774 10782 10789 10795 10803 10810 10814 10819 10826 10833 10840 10847 10855 10866 10876 10881 10887 10894 10899 10903 10910 10917 10924 10931 10935 10939 10943 10946 10951 10955 10958 10963 10966 10968 10971 10975 10979 10982 10986 10989 10993 10995 10997 11000 11003 11006
10736 10728 10720 10712 10704 10696 10689 10683 10677 10673 10669 10666 10663 10662 10661 10660 10660 10660 10661 10662 10662 10662 10663 10663 10664 10666 10668 10670 10674 10678 10682 10688 10693 10700 10707 10715 10723 10731 10739 10747 10754 10761 10768 10775 10783 10790 10797 10802 10806 10812 10819 10826 10834 10843 10853 10863 10869 10874 10883 10891 10893 10899 10907 10913 10919 10925 10929 10932 10936 10940 10945 10949 10952 10957 10961 10963 10966 10970 10974 10978 10981 10985 10988 10991 10994 10997 10999 11002
10732 10724 10717 10709 10701 10694 10687 10681 10676 10671 10667 10664 10662 10660 10659 10659 10658 10659 10659 10660 10661 10662 10662 10663 10664 10665 10666 10669 10672 10675 10680 10684 10689 10696 10703 10710 10718 10725 10733 10741 10748 10755 10761 10768 10776 10783 10790 10797 10803 10808 10815 10823 10832 10841 10848 10855 10861 10868 10877 10882 10887 10896 10904 10908 10914 10920 10923 10926 10930 10935 10939 10943 10947 10951 10955 10958 10961 10965 10970 10974 10977 10981 10984 10988 10991 10994 10995 10998
10728 10721 10714 10706 10699 10692 10685 10679 10674 10669 10665 10662 10660 10658 10657 10657 10657 10657 10658 10659 10660 10661 10661 10662 10663 10664 10665 10667 10670 10673 10677 10681 10686 10692 10699 10706 10714 10721 10728 10735 10742 10748 10754 10761 10769 10776 10783 10791 10798 10806 10813 10819 10827 10833 10839 10847 10855 10861 10866 10871 10880 10890 10896 10901 10908 10913 10916 10921 10926 10930 10933 10937 10941 10945 10949 10952 10956 10960 10966 10971 10974 10976 10980 10984 10988 10990 10992 10994
10725 10718 10711 10703 10696 10689 10683 10677 10673 10668 10663 10660 10658 10656 10655 10655 10655 10655 10656 10657 10658 10659 10660 10661 10662 10663 10664 10666 10668 10671 10674 10678 10683 10688 10694 10701 10709 10716 10724 10730 10737 10743 10748 10755 10762 10770 10777 10786 10794 10800 10804 10812 10821 10827 10833 10841 10847 10852 10857 10865 10875 10883 10887 10893 10899 10903 10909 10914 10919 10923 10926 10929 10934 10938 10943 10947 10950 10955 10962 10967 10969 10971 10976 10981 10984 10986 10988 10990
10721 10714 10707 10700 10693 10686 10680 10675 10671 10666 10662 10658 10655 10653 10653 10653 10653 10653 10654 10655 10656 10658 10659 10660 10661 10663 10664 10665 10667 10669 10672 10676 10680 10685 10691 10697 10704 10712 10719 10725 10732 10737 10743 10750 10758 10766 10774 10782 10788 10792 10799 10811 10818 10820 10824 10832 10838 10845 10852 10861 10871 10877 10881 10886 10890 10894 10899 10904 10910 10915 10918 10921 10927 10933 10938 10943 10946 10952 10958 10962 10964 10966 10970 10975 10978 10981 10984 10986
10718 10711 10704 10697 10690 10683 10677 10672 10668 10664 10659 10656 10653 10651 10650 10650 10650 10651 10651 10653 10654 10656 10657 10659 10660 10662 10663 10665 10666 10668 10670 10673 10677 10681 10687 10693 10700 10707 10713 10720 10727 10732 10738 10745 10752 10761 10769 10776 10781 10787 10796 10804 10806 10809 10818 10826 10833 10841 10849 10858 10866 10870 10874 10881 10885 10888 10893 10897 10903 10908 10911 10915 10921 10927 10933 10938 10943 10948 10952 10956 10960 10962 10965 10967 10971 10976 10979 10981
10714 10708 10701 10694 10687 10680 10674 10669 10665 10661 10657 10653 10651 10648 10647 10647 10647 10648 10649 10650 10652 10654 10655 10657 10658 10660 10662 10663 10665 10667 10668 10671 10674 10678 10683 10688 10695 10702 10708 10715 10721 10727 10734 10740 10747 10755 10762 10768 10774 10782 10789 10794 10798 10806 10815 10822 10829 10837 10846 10854 10858 10862 10868 10874 10879 10883 10888 10894 10898 10902 10905 10909 10914 10919 10924 10931 10937 10942 10946 10950 10955 10958 10959 10962 10966 10971 10974 10976
10710 10704 10697 10691 10684 10677 10671 10666 10661 10657 10654 10650 10648 10646 10644 10644 10644 10645 10646 10648 10649 10651 10653 10655 10656 10658 10659 10661 10663 10664 10667 10669 10672 10675 10679 10684 10690 10696 10703 10710 10716 10723 10729 10735 10743 10751 10757 10763 10771 10776 10781 10787 10793 10801 10809 10816 10823 10830 10837 10843 10848 10854 10860 10866 10871 10875 10880 10887 10891 10894 10898 10902 10907 10912 10916 10922 10929 10935 10940 10944 10949 10952 10954 10957 10962 10966 10969 10971
10706 10700 10693 10687 10680 10674 10668 10662 10657 10653 10650 10647 10645 10643 10641 10641 10641 10642 10643 10645 10646 10648 10650 10652 10654 10655 10657 10659 10660 10662 10664 10667 10669 10672 10676 10681 10686 10692 10698 10704 10711 10718 10724 10731 10738 10746 10753 10760 10766 10771 10777 10783 10789 10796 10803 10809 10814 10820 10826 10832 10839 10846 10852 10857 10862 10867 10872 10878 10882 10885 10889 10893 10900 10906 10910 10916 10922 10928 10934 10939 10943 10946 10949 10952 10957 10961 10964 10967
10703 10696 10690 10683 10677 10670 10664 10659 10654 10649 10646 10644 10642 10640 10638 10638 10638 10639 10640 10642 10644 10645 10647 10649 10651 10653 10655 10656 10658 10660 10662 10664 10666 10669 10673 10677 10681 10687 10692 10698 10705 10712 10718 10725 10733 10741 10747 10752 10759 10765 10772 10778 10786 10792 10798 10802 10807 10813 10818 10824 10832 10838 10842 10848 10854 10858 10864 10870 10873 10879 10882 10886 10893 10900 10904 10909 10915 10920 10927 10932 10936 10940 10943 10947 10952 10956 10959 10961
10699 10693 10686 10679 10673 10667 10660 10655 10650 10645 10642 10640 10638 10637 10636 10635 10636 10636 10637 10639 10641 10642 10644 10646 10648 10650 10652 10654 10655 10657 10658 10660 10662 10665 10668 10672 10676 10680 10685 10691 10698 10705 10712 10719 10727 10735 10740 10746 10753 10760 10767 10774 10781 10787 10792 10797 10801 10806 10812 10818 10825 10830 10835 10842 10846 10850 10856 10862 10867 10873 10876 10880 10887 10893 10897 10902 10907 10912 10918 10924 10929 10933 10938 10942 10947 10951 10954 10956
10695 10689 10682 10675 10668 10663 10656 10651 10646 10641 10638 10636 10635 10634 10633 10633 10633 10634 10635 10636 10638 10639 10641 10643 10644 10646 10649 10650 10652 10653 10654 10656 10658 10661 10664 10667 10671 10675 10679 10685 10690 10697 10704 10711 10720 10729 10734 10740 10747 10755 10761 10769 10775 10781 10786 10790 10795 10800 10806 10812 10818 10823 10829 10835 10839 10842 10849 10855 10860 10864 10868 10873 10879 10885 10890 10894 10899 10904 10909 10914 10920 10926 10932 10937 10941 10945 10950 10953
10692 10685 10679 10671 10664 10658 10652 10647 10642 10638 10634 10632 10632 10631 10631 10630 10631 10631 10632 10634 10635 10636 10638 10640 10641 10643 10645 10647 10648 10649 10651 10652 10654 10656 10659 10662 10666 10669 10674 10679 10684 10690 10697 10704 10713 10721 10726 10732 10741 10750 10756 10762 10768 10774 10780 10785 10790 10795 10800 10805 10810 10816 10823 10829 10833 10838 10843 10847 10852 10856 10860 10865 10870 10876 10882 10886 10891 10897 10901 10905 10912 10918 10925 10931 10935 10940 10945 10948
10688 10682 10675 10667 10660 10654 10648 10643 10638 10634 10631 10629 10628 10628 10627 10627 10628 10629 10630 10631 10632 10634 10635 10637 10639 10640 10642 10644 10645 10646 10647 10648 10649 10651 10654 10657 10661 10664 10668 10673 10678 10684 10690 10697 10705 10712 10718 10726 10737 10744 10748 10753 10759 10766 10772 10779 10785 10789 10793 10798 10804 10809 10816 10822 10827 10832 10835 10840 10845 10849 10852 10856 10860 10866 10873 10878 10883 10889 10894 10899 10905 10911 10918 10924 10929 10934 10938 10942